Retour au catalogue

SIRIUS 3

ActifCommunicationsGEO
NORAD 25492·PAYLOAD·🇱🇺 Luxembourg

Lancé Oct 5, 1998 depuis Guiana Space Centre

Loading…

TLE

FraisSource: Space-Track

Époque: Sep 14, 2026, 12:16 UTC

1 25492U 98056B   26257.51169531  .00000016  00000-0  00000-0 0  9990
2 25492  11.9357  33.6423 0001910 128.5686  55.1368  0.99034134102002

Suivez SIRIUS 3 en temps réel avec AllMySat

Download on the App Store